This is the latest recevied weather packets stored in our database for station/object WC4PEM-7. If no packets are shown the sender has not sent any weather packets the latest 10 day(s).
| Time | Temp. | Humidity | Pressure | Rain* | Wind** | Luminosity | Snow |
|---|---|---|---|---|---|---|---|
| 1787778590 | 27.22° C | 81% | 1014.3 hPa | 0 mm | - | - | - |
| 1787778418 | 27.22° C | 81% | 1014.2 hPa | 0 mm | - | - | - |
| 1787778290 | 27.22° C | 81% | 1014.2 hPa | 0 mm | - | - | - |
| 1787777990 | 27.22° C | 80% | 1014.3 hPa | 0 mm | - | - | - |
| 1787777690 | 27.22° C | 79% | 1014.4 hPa | 0 mm | - | - | - |
| 1787777525 | 27.78° C | 78% | 1014.6 hPa | 0 mm | - | - | - |
| 1787777391 | 27.78° C | 78% | 1014.6 hPa | 0 mm | - | - | - |
| 1787777091 | 27.78° C | 77% | 1014.8 hPa | 0 mm | - | - | - |
| 1787776791 | 27.78° C | 75% | 1014.8 hPa | 0 mm | - | - | - |
| 1787776491 | 28.89° C | 73% | 1015 hPa | 0 mm | - | - | - |
| 1787776191 | 30° C | 72% | 1015 hPa | 0 mm | - | - | - |
| 1787775891 | 30.56° C | 70% | 1014.8 hPa | 0 mm | - | - | - |
| 1787775591 | 31.67° C | 65% | 1014.8 hPa | 0 mm | - | - | - |
| 1787775291 | 32.78° C | 62% | 1014.6 hPa | 0 mm | - | - | - |
| 1787774991 | 33.33° C | 60% | 1014.5 hPa | 0 mm | - | - | - |
| 1787774691 | 33.33° C | 58% | 1014.5 hPa | 0 mm | - | - | - |
| 1787774391 | 33.33° C | 60% | 1014.5 hPa | 0 mm | - | - | - |
| 1787774091 | 33.89° C | 58% | 1014.6 hPa | 0 mm | - | - | - |
| 1787773872 | 35° C | 57% | 1014.7 hPa | 0 mm | - | - | - |
| 1787773791 | 35° C | 57% | 1014.7 hPa | 0 mm | - | - | - |
| 1787773491 | 35° C | 59% | 1014.7 hPa | 0 mm | - | - | - |
| 1787773191 | 34.44° C | 59% | 1014.7 hPa | 0 mm | - | - | - |
| 1787772891 | 33.89° C | 59% | 1014.9 hPa | 0 mm | - | - | - |
| 1787772713 | 33.89° C | 58% | 1014.9 hPa | 0 mm | - | - | - |
| 1787772591 | 33.89° C | 58% | 1014.9 hPa | 0 mm | - | - | - |
* Rain latest hour (hover to see other rain measurements)
** Current wind speed in m/s (hover to see current wind gust speed)